| time (UTC) | temp C | wind direction | speed KPH | gust KPH | rain 1hr cm | rain 24hr cm | rain mn cm | humidity % | barometer mb |
| 20260506134602 | 8 | 79 | 1.6 | 1.6 | 0.00 | 1.40 | 1.40 | 98 | 1006.5 |
| 20260506134058 | 8 | 167 | 6.4 | 8.0 | 0.00 | 1.40 | 1.40 | 98 | 1006.4 |
| 20260506133555 | 8 | 189 | 1.6 | 1.6 | 0.00 | 1.40 | 1.40 | 98 | 1006.4 |
| 20260506133053 | 8 | 181 | 0.0 | 0.0 | 0.13 | 1.40 | 1.40 | 98 | 1006.3 |
| 20260506132550 | 8 | 129 | 1.6 | 1.6 | 0.13 | 1.40 | 1.40 | 98 | 1006.2 |
| 20260506132047 | 8 | 169 | 0.0 | 0.0 | 0.18 | 1.37 | 1.37 | 98 | 1006.1 |
| 20260506131544 | 8 | 117 | 1.6 | 1.6 | 0.18 | 1.37 | 1.37 | 98 | 1006.4 |
| 20260506131040 | 8 | 326 | 3.2 | 3.2 | 0.00 | 1.35 | 1.35 | 98 | 1006.5 |
| 20260506130537 | 8 | 148 | 4.8 | 4.8 | 0.00 | 1.35 | 1.35 | 98 | 1006.4 |
| 20260506130035 | 8 | 152 | 1.6 | 1.6 | 0.18 | 1.35 | 1.35 | 98 | 1006.4 |
| 20260506125533 | 8 | 1 | 1.6 | 3.2 | 0.18 | 1.35 | 1.35 | 98 | 1006.2 |
| 20260506125031 | 8 | 102 | 3.2 | 3.2 | 0.00 | 1.32 | 1.32 | 98 | 1006.3 |
| 20260506124528 | 8 | 177 | 1.6 | 1.6 | 0.13 | 1.32 | 1.32 | 98 | 1006.2 |
| 20260506124026 | 8 | 43 | 4.8 | 4.8 | 0.13 | 1.32 | 1.32 | 98 | 1006.0 |
| 20260506123523 | 8 | 163 | 0.0 | 0.0 | 0.00 | 1.30 | 1.30 | 98 | 1005.6 |
| 20260506123021 | 8 | 188 | 3.2 | 3.2 | 0.00 | 1.30 | 1.30 | 99 | 1005.4 |
| 20260506122518 | 8 | 162 | 1.6 | 3.2 | 0.00 | 1.30 | 1.30 | 98 | 1005.5 |
| 20260506122016 | 9 | 128 | 0.0 | 1.6 | 0.18 | 1.30 | 1.30 | 99 | 1005.1 |
| 20260506121513 | 8 | 169 | 0.0 | 0.0 | 0.00 | 1.27 | 1.27 | 99 | 1004.7 |
| 20260506121009 | 8 | 159 | 3.2 | 3.2 | 0.13 | 1.27 | 1.27 | 99 | 1004.9 |
| 20260506120508 | 8 | 125 | 4.8 | 4.8 | 0.13 | 1.27 | 1.27 | 99 | 1005.4 |
| 20260506120005 | 9 | 168 | 1.6 | 1.6 | 0.00 | 1.24 | 1.24 | 99 | 1005.4 |
| 20260506115502 | 9 | 140 | 0.0 | 1.6 | 0.00 | 1.24 | 1.24 | 99 | 1005.3 |
| 20260506115000 | 9 | 170 | 0.0 | 1.6 | 0.00 | 1.24 | 1.24 | 99 | 1005.4 |
| 20260506114457 | 9 | 129 | 3.2 | 3.2 | 0.00 | 1.24 | 1.24 | 99 | 1005.3 |
| 20260506113956 | 9 | 58 | 3.2 | 4.8 | 0.00 | 1.24 | 1.24 | 99 | 1005.3 |
| 20260506113453 | 9 | 9 | 1.6 | 3.2 | 0.00 | 1.24 | 1.24 | 99 | 1005.4 |
| 20260506112950 | 9 | 56 | 3.2 | 3.2 | 0.00 | 1.24 | 1.24 | 99 | 1005.2 |
| 20260506112447 | 9 | 29 | 6.4 | 8.0 | 0.00 | 1.24 | 1.24 | 99 | 1004.9 |
| 20260506111944 | 9 | 52 | 1.6 | 4.8 | 0.00 | 1.24 | 1.24 | 99 | 1004.6 |
| 20260506111443 | 10 | 150 | 0.0 | 1.6 | 0.00 | 1.24 | 1.24 | 99 | 1004.3 |
| 20260506110939 | 10 | 147 | 1.6 | 3.2 | 0.18 | 1.24 | 1.24 | 99 | 1004.2 |
| 20260506110437 | 10 | 163 | 1.6 | 1.6 | 0.18 | 1.24 | 1.24 | 99 | 1004.4 |
| 20260506105933 | 10 | 155 | 1.6 | 1.6 | 0.00 | 1.22 | 1.22 | 99 | 1004.4 |
| 20260506105430 | 10 | 53 | 8.0 | 9.7 | 0.00 | 1.22 | 1.22 | 99 | 1004.3 |
| 20260506104927 | 10 | 169 | 3.2 | 4.8 | 0.00 | 1.22 | 1.22 | 99 | 1004.1 |
| 20260506104425 | 10 | 172 | 3.2 | 3.2 | 0.00 | 1.22 | 1.22 | 99 | 1004.1 |
| 20260506103923 | 10 | 182 | 0.0 | 1.6 | 0.13 | 1.22 | 1.22 | 99 | 1004.2 |
| 20260506103420 | 10 | 168 | 3.2 | 4.8 | 0.13 | 1.22 | 1.22 | 99 | 1004.2 |
| 20260506102917 | 11 | 170 | 0.0 | 1.6 | 0.30 | 1.19 | 1.19 | 99 | 1004.0 |
| 20260506102415 | 11 | 164 | 1.6 | 1.6 | 0.61 | 1.19 | 1.19 | 99 | 1003.9 |
| 20260506101912 | 12 | 32 | 8.0 | 11.3 | 0.43 | 1.12 | 1.12 | 99 | 1003.8 |
| 20260506101408 | 13 | 78 | 0.0 | 1.6 | 0.48 | 1.07 | 1.07 | 99 | 1003.7 |
| 20260506100906 | 13 | 178 | 0.0 | 1.6 | 0.48 | 1.04 | 1.04 | 99 | 1003.5 |
| 20260506100404 | 13 | 177 | 0.0 | 0.0 | 0.30 | 1.02 | 1.02 | 99 | 1003.4 |
| 20260506095902 | 13 | 184 | 1.6 | 1.6 | 0.18 | 0.97 | 0.97 | 99 | 1003.6 |
| 20260506095400 | 13 | 175 | 0.0 | 1.6 | 0.30 | 0.97 | 0.97 | 99 | 1003.2 |
| 20260506094856 | 13 | 185 | 1.6 | 1.6 | 0.13 | 0.94 | 0.94 | 99 | 1003.1 |
| 20260506094355 | 13 | 168 | 0.0 | 0.0 | 0.18 | 0.91 | 0.91 | 99 | 1002.9 |
| 20260506093852 | 13 | 178 | 0.0 | 0.0 | 0.18 | 0.91 | 0.91 | 99 | 1003.4 |
| 20260506093350 | 13 | 177 | 0.0 | 0.0 | 0.00 | 0.89 | 0.89 | 99 | 1003.3 |
| 20260506092847 | 13 | 180 | 0.0 | 0.0 | 0.13 | 0.89 | 0.89 | 99 | 1003.2 |
| 20260506092345 | 13 | 181 | 1.6 | 1.6 | 0.13 | 0.89 | 0.89 | 99 | 1003.4 |
| 20260506091841 | 13 | 170 | 0.0 | 0.0 | 0.18 | 0.86 | 0.86 | 99 | 1003.4 |
| 20260506091339 | 13 | 170 | 0.0 | 0.0 | 0.30 | 0.86 | 0.86 | 99 | 1003.2 |
| 20260506090836 | 13 | 170 | 0.0 | 0.0 | 0.30 | 0.84 | 0.84 | 99 | 1003.3 |
| 20260506090334 | 13 | 175 | 0.0 | 0.0 | 0.30 | 0.81 | 0.81 | 99 | 1003.4 |
| 20260506085830 | 13 | 180 | 0.0 | 0.0 | 0.30 | 0.79 | 0.79 | 99 | 1003.4 |
| 20260506085326 | 13 | 185 | 1.6 | 1.6 | 0.36 | 0.76 | 0.76 | 99 | 1003.3 |
| 20260506084823 | 13 | 178 | 0.0 | 1.6 | 0.30 | 0.74 | 0.74 | 99 | 1003.7 |
| 20260506084320 | 13 | 174 | 1.6 | 1.6 | 0.30 | 0.71 | 0.71 | 99 | 1003.6 |
| 20260506083817 | 13 | 173 | 0.0 | 0.0 | 0.30 | 0.69 | 0.69 | 99 | 1003.7 |
| 20260506083314 | 13 | 206 | 3.2 | 3.2 | 0.43 | 0.66 | 0.66 | 99 | 1003.9 |
| 20260506082812 | 13 | 177 | 0.0 | 0.0 | 0.48 | 0.64 | 0.64 | 99 | 1003.7 |
| 20260506082308 | 13 | 177 | 0.0 | 0.0 | 0.30 | 0.58 | 0.58 | 99 | 1004.1 |
| 20260506081805 | 13 | 179 | 1.6 | 1.6 | 0.30 | 0.56 | 0.56 | 99 | 1003.9 |
| 20260506081302 | 13 | 170 | 0.0 | 0.0 | 0.30 | 0.53 | 0.53 | 99 | 1003.8 |
| 20260506080800 | 13 | 159 | 0.0 | 0.0 | 0.30 | 0.51 | 0.51 | 99 | 1003.9 |
| 20260506080256 | 13 | 163 | 0.0 | 0.0 | 0.30 | 0.48 | 0.48 | 99 | 1003.9 |
| 20260506073240 | 13 | 157 | 0.0 | 0.0 | 0.00 | 0.33 | 0.33 | 99 | 1003.5 |
| 20260506072737 | 13 | 157 | 0.0 | 0.0 | 0.00 | 0.33 | 0.33 | 99 | 1003.5 |
| 20260506072234 | 13 | 156 | 0.0 | 0.0 | 0.00 | 0.33 | 0.33 | 99 | 1003.6 |
| 20260506071732 | 13 | 158 | 0.0 | 0.0 | 0.00 | 0.33 | 0.33 | 99 | 1003.6 |
| 20260506071230 | 13 | 159 | 0.0 | 0.0 | 0.00 | 0.33 | 0.33 | 99 | 1003.5 |
| 20260506070727 | 13 | 155 | 0.0 | 1.6 | 0.00 | 0.33 | 0.33 | 98 | 1003.7 |
| 20260506070224 | 13 | 164 | 0.0 | 0.0 | 0.00 | 0.33 | 0.33 | 98 | 1003.7 |
| 20260506062200 | 13 | 176 | 0.0 | 1.6 | 0.13 | 0.33 | 0.33 | 98 | 1004.6 |
| 20260506061656 | 13 | 166 | 0.0 | 0.0 | 0.13 | 0.33 | 0.33 | 98 | 1004.5 |
| 20260506061154 | 13 | 175 | 0.0 | 0.0 | 0.18 | 0.30 | 0.30 | 98 | 1004.5 |
| 20260506060652 | 13 | 175 | 0.0 | 0.0 | 0.18 | 0.30 | 0.30 | 98 | 1004.6 |
| 20260506060149 | 13 | 176 | 0.0 | 0.0 | 0.13 | 0.28 | 0.28 | 98 | 1004.9 |
| 20260506051121 | 15 | 176 | 0.0 | 0.0 | 0.13 | 0.18 | 0.18 | 98 | 1005.3 |
| 20260506050619 | 15 | 175 | 0.0 | 0.0 | 0.13 | 0.18 | 0.18 | 97 | 1005.6 |
| 20260506050116 | 15 | 132 | 1.6 | 1.6 | 0.18 | 0.15 | 0.15 | 97 | 1005.3 |
| 20260506045109 | 15 | 164 | 0.0 | 0.0 | 0.13 | 0.13 | 0.13 | 97 | 1005.7 |
| 20260506044607 | 15 | 164 | 0.0 | 0.0 | 0.13 | 0.13 | 0.13 | 97 | 1005.6 |
| 20260506044104 | 15 | 162 | 0.0 | 0.0 | 0.13 | 0.13 | 0.13 | 97 | 1006.1 |
| 20260506043601 | 15 | 163 | 0.0 | 0.0 | 0.18 | 0.10 | 0.10 | 96 | 1005.9 |
| 20260506043059 | 15 | 163 | 0.0 | 0.0 | 0.36 | 0.10 | 0.10 | 96 | 1005.9 |
| 20260506042558 | 15 | 166 | 0.0 | 0.0 | 0.30 | 0.08 | 0.08 | 96 | 1006.0 |
| 20260506042055 | 15 | 173 | 0.0 | 0.0 | 0.13 | 0.05 | 0.05 | 96 | 1006.1 |
| 20260506041554 | 15 | 169 | 0.0 | 0.0 | 0.18 | 0.03 | 0.03 | 95 | 1006.2 |
| 20260506041050 | 15 | 168 | 0.0 | 0.0 | 0.18 | 0.03 | 0.03 | 94 | 1006.3 |
| 20260506040548 | 15 | 178 | 0.0 | 0.0 | 0.00 | 0.00 | 0.00 | 94 | 1006.1 |
| 20260506040044 | 15 | 178 | 1.6 | 1.6 | 0.00 | 0.00 | 0.00 | 92 | 1006.1 |
| 20260506035541 | 15 | 178 | 1.6 | 1.6 | 0.00 | 0.10 | 0.10 | 91 | 1006.2 |
| 20260506035038 | 15 | 178 | 0.0 | 0.0 | 0.00 | 0.10 | 0.10 | 90 | 1006.0 |
| 20260506034535 | 16 | 165 | 1.6 | 1.6 | 0.00 | 0.10 | 0.10 | 89 | 1005.7 |
| 20260506034032 | 16 | 169 | 0.0 | 0.0 | 0.00 | 0.10 | 0.10 | 88 | 1005.6 |
| 20260506033530 | 16 | 159 | 0.0 | 1.6 | 0.00 | 0.10 | 0.10 | 87 | 1005.7 |
| 20260506033026 | 16 | 181 | 1.6 | 1.6 | 0.00 | 0.10 | 0.10 | 86 | 1006.0 |
| 20260506032524 | 16 | 144 | 1.6 | 1.6 | 0.00 | 0.10 | 0.10 | 85 | 1006.0 |
| 20260506032020 | 16 | 167 | 0.0 | 0.0 | 0.00 | 0.10 | 0.10 | 84 | 1005.9 |
| 20260506031518 | 16 | 164 | 0.0 | 0.0 | 0.00 | 0.10 | 0.10 | 84 | 1005.7 |
| 20260506031015 | 16 | 162 | 0.0 | 0.0 | 0.00 | 0.10 | 0.10 | 83 | 1005.6 |
| 20260506030513 | 16 | 155 | 0.0 | 1.6 | 0.00 | 0.10 | 0.10 | 83 | 1005.9 |
| 20260506030010 | 16 | 167 | 0.0 | 0.0 | 0.00 | 0.10 | 0.10 | 82 | 1005.6 |
| 20260506025507 | 16 | 168 | 1.6 | 1.6 | 0.00 | 0.10 | 0.10 | 82 | 1005.9 |
| 20260506025003 | 16 | 160 | 0.0 | 0.0 | 0.00 | 0.10 | 0.10 | 82 | 1005.6 |
| 20260506024500 | 16 | 172 | 0.0 | 0.0 | 0.00 | 0.10 | 0.10 | 82 | 1005.6 |
| 20260506023955 | 16 | 170 | 0.0 | 0.0 | 0.00 | 0.10 | 0.10 | 81 | 1005.4 |
| 20260506023453 | 16 | 175 | 0.0 | 1.6 | 0.00 | 0.10 | 0.10 | 80 | 1005.6 |
| 20260506022949 | 17 | 145 | 1.6 | 1.6 | 0.00 | 0.10 | 0.10 | 80 | 1005.6 |
| 20260506022447 | 17 | 65 | 6.4 | 8.0 | 0.00 | 0.10 | 0.10 | 79 | 1005.7 |
| 20260506021945 | 17 | 148 | 1.6 | 3.2 | 0.00 | 0.10 | 0.10 | 79 | 1005.2 |
| 20260506021442 | 17 | 171 | 0.0 | 1.6 | 0.00 | 0.10 | 0.10 | 78 | 1005.6 |
| 20260506020939 | 17 | 172 | 1.6 | 3.2 | 0.00 | 0.10 | 0.10 | 77 | 1005.6 |
| 20260506020437 | 17 | 163 | 3.2 | 3.2 | 0.00 | 0.10 | 0.10 | 76 | 1005.6 |
| 20260506015934 | 17 | 154 | 3.2 | 3.2 | 0.00 | 0.10 | 0.10 | 74 | 1005.7 |
| 20260506015431 | 18 | 166 | 4.8 | 4.8 | 0.00 | 0.10 | 0.10 | 73 | 1005.3 |
| 20260506014928 | 18 | 32 | 14.5 | 16.1 | 0.00 | 0.10 | 0.10 | 71 | 1005.7 |
| 20260506014425 | 18 | 210 | 6.4 | 9.7 | 0.00 | 0.10 | 0.10 | 67 | 1005.9 |
| 20260506013921 | 18 | 102 | 3.2 | 3.2 | 0.00 | 0.10 | 0.10 | 65 | 1004.9 |
| 20260506013420 | 18 | 176 | 0.0 | 0.0 | 0.00 | 0.10 | 0.10 | 66 | 1004.9 |
| 20260506012915 | 19 | 152 | 1.6 | 1.6 | 0.00 | 0.10 | 0.10 | 65 | 1005.0 |
| 20260506012412 | 19 | 173 | 0.0 | 1.6 | 0.00 | 0.10 | 0.10 | 65 | 1004.9 |
| 20260506011909 | 19 | 200 | 3.2 | 4.8 | 0.00 | 0.10 | 0.10 | 60 | 1004.6 |
| 20260506011406 | 19 | 197 | 1.6 | 3.2 | 0.00 | 0.10 | 0.10 | 66 | 1005.0 |
| 20260506010903 | 19 | 178 | 0.0 | 0.0 | 0.00 | 0.10 | 0.10 | 63 | 1005.0 |
| 20260506010402 | 19 | 169 | 0.0 | 1.6 | 0.00 | 0.10 | 0.10 | 62 | 1004.8 |
| 20260506005858 | 20 | 171 | 0.0 | 1.6 | 0.00 | 0.10 | 0.10 | 60 | 1004.8 |
| 20260506005355 | 20 | 167 | 1.6 | 1.6 | 0.00 | 0.10 | 0.10 | 62 | 1004.8 |
| 20260506004850 | 20 | 175 | 0.0 | 0.0 | 0.00 | 0.10 | 0.10 | 62 | 1004.9 |
| 20260506004349 | 20 | 159 | 0.0 | 0.0 | 0.00 | 0.10 | 0.10 | 59 | 1004.9 |
| 20260506003845 | 20 | 172 | 1.6 | 1.6 | 0.00 | 0.10 | 0.10 | 57 | 1004.7 |
| 20260506003341 | 20 | 135 | 1.6 | 3.2 | 0.00 | 0.10 | 0.10 | 63 | 1004.8 |
| 20260506002838 | 20 | 180 | 0.0 | 1.6 | 0.00 | 0.10 | 0.10 | 63 | 1004.9 |
| 20260506002334 | 20 | 171 | 3.2 | 3.2 | 0.00 | 0.10 | 0.10 | 63 | 1004.9 |
| 20260506001829 | 20 | 176 | 1.6 | 1.6 | 0.00 | 0.10 | 0.10 | 62 | 1004.6 |
| 20260506001327 | 20 | 171 | 1.6 | 1.6 | 0.00 | 0.10 | 0.10 | 61 | 1005.0 |
| 20260506000824 | 20 | 197 | 3.2 | 3.2 | 0.00 | 0.10 | 0.10 | 62 | 1005.0 |
| 20260506000323 | 20 | 173 | 1.6 | 1.6 | 0.00 | 0.10 | 0.10 | 62 | 1004.8 |
| 20260505235818 | 20 | 174 | 0.0 | 0.0 | 0.00 | 0.10 | 0.10 | 63 | 1005.0 |
| 20260505235316 | 20 | 200 | 6.4 | 9.7 | 0.00 | 0.10 | 0.10 | 58 | 1004.9 |
| 20260505234812 | 20 | 171 | 0.0 | 0.0 | 0.00 | 0.10 | 0.10 | 63 | 1005.0 |
| 20260505234310 | 21 | 165 | 0.0 | 0.0 | 0.00 | 0.10 | 0.10 | 60 | 1005.0 |
| 20260505233807 | 21 | 167 | 0.0 | 0.0 | 0.00 | 0.10 | 0.10 | 62 | 1005.1 |
| 20260505233305 | 21 | 166 | 0.0 | 0.0 | 0.00 | 0.10 | 0.10 | 59 | 1004.8 |
| 20260505232802 | 21 | 169 | 1.6 | 1.6 | 0.00 | 0.10 | 0.10 | 62 | 1005.0 |
| 20260505232259 | 21 | 182 | 0.0 | 0.0 | 0.00 | 0.10 | 0.10 | 62 | 1004.6 |
| 20260505231755 | 21 | 171 | 1.6 | 1.6 | 0.00 | 0.10 | 0.10 | 62 | 1004.8 |
| 20260505231254 | 21 | 176 | 0.0 | 0.0 | 0.00 | 0.10 | 0.10 | 60 | 1004.9 |
| 20260505230752 | 21 | 176 | 0.0 | 0.0 | 0.00 | 0.10 | 0.10 | 59 | 1004.7 |
| 20260505230249 | 21 | 177 | 1.6 | 1.6 | 0.00 | 0.10 | 0.10 | 60 | 1004.9 |
| 20260505225745 | 21 | 181 | 3.2 | 3.2 | 0.00 | 0.10 | 0.10 | 59 | 1005.0 |
| 20260505225243 | 21 | 177 | 0.0 | 0.0 | 0.00 | 0.10 | 0.10 | 59 | 1004.8 |
| 20260505224737 | 21 | 171 | 0.0 | 0.0 | 0.00 | 0.10 | 0.10 | 57 | 1004.7 |
| 20260505224235 | 21 | 169 | 0.0 | 0.0 | 0.00 | 0.10 | 0.10 | 57 | 1004.9 |
| 20260505223733 | 22 | 232 | 4.8 | 8.0 | 0.00 | 0.10 | 0.10 | 55 | 1004.8 |
| 20260505223229 | 22 | 171 | 4.8 | 4.8 | 0.00 | 0.10 | 0.10 | 55 | 1005.1 |
| 20260505222725 | 22 | 138 | 1.6 | 1.6 | 0.00 | 0.10 | 0.10 | 56 | 1004.9 |
| 20260505222221 | 22 | 231 | 4.8 | 4.8 | 0.00 | 0.10 | 0.10 | 54 | 1005.0 |
| 20260505221719 | 22 | 165 | 3.2 | 3.2 | 0.00 | 0.10 | 0.10 | 55 | 1005.1 |
| 20260505221215 | 22 | 208 | 6.4 | 9.7 | 0.00 | 0.10 | 0.10 | 54 | 1005.1 |
| 20260505220712 | 22 | 171 | 1.6 | 1.6 | 0.00 | 0.10 | 0.10 | 58 | 1005.0 |
| 20260505220210 | 22 | 223 | 3.2 | 3.2 | 0.00 | 0.10 | 0.10 | 55 | 1005.1 |
| 20260505215707 | 22 | 197 | 6.4 | 8.0 | 0.00 | 0.10 | 0.10 | 55 | 1004.8 |
| 20260505215205 | 22 | 176 | 1.6 | 1.6 | 0.00 | 0.10 | 0.10 | 55 | 1005.0 |
| 20260505214703 | 22 | 194 | 4.8 | 4.8 | 0.00 | 0.10 | 0.10 | 55 | 1005.1 |
| 20260505214200 | 22 | 189 | 3.2 | 3.2 | 0.00 | 0.10 | 0.10 | 56 | 1005.1 |
| 20260505213657 | 22 | 159 | 3.2 | 3.2 | 0.00 | 0.10 | 0.10 | 54 | 1005.2 |
| 20260505213154 | 22 | 160 | 4.8 | 8.0 | 0.00 | 0.10 | 0.10 | 54 | 1005.3 |
| 20260505212650 | 22 | 156 | 12.9 | 14.5 | 0.00 | 0.10 | 0.10 | 54 | 1005.1 |
| 20260505212148 | 22 | 180 | 6.4 | 8.0 | 0.00 | 0.10 | 0.10 | 55 | 1005.3 |
| 20260505211644 | 22 | 157 | 4.8 | 4.8 | 0.00 | 0.10 | 0.10 | 55 | 1005.1 |
| 20260505211142 | 22 | 224 | 9.7 | 12.9 | 0.00 | 0.10 | 0.10 | 53 | 1005.2 |
| 20260505210638 | 22 | 173 | 8.0 | 11.3 | 0.00 | 0.10 | 0.10 | 53 | 1005.1 |
| 20260505210135 | 22 | 19 | 3.2 | 3.2 | 0.00 | 0.10 | 0.10 | 54 | 1005.2 |
| 20260505205632 | 22 | 169 | 3.2 | 4.8 | 0.00 | 0.10 | 0.10 | 54 | 1005.5 |
| 20260505205131 | 22 | 179 | 11.3 | 12.9 | 0.00 | 0.10 | 0.10 | 54 | 1005.4 |
| 20260505204627 | 22 | 160 | 3.2 | 4.8 | 0.00 | 0.10 | 0.10 | 54 | 1005.2 |
| 20260505204125 | 22 | 209 | 4.8 | 8.0 | 0.00 | 0.10 | 0.10 | 54 | 1005.3 |
| 20260505203621 | 22 | 203 | 4.8 | 9.7 | 0.00 | 0.10 | 0.10 | 55 | 1005.3 |